N894MA KHSV-KHSV

Flight info

Callsign N894MA
Flight time 0h 18m
Altitude VFR
Route PATTERN
Aircraft P28A/L-DOV/C

Departure

Time 2026-04-21 00:02
Airport Huntsville International Airport (KHSV)

Arrival

Time 2026-04-21 00:20
Airport Huntsville International Airport (KHSV)
Time Latitude Longitude Altitude Speed Heading
2026-04-20 23:53 34.64935 -86.76861 600 ft 0 kts 270°
2026-04-20 23:54 34.64933 -86.76864 600 ft 4 kts 213°
2026-04-20 23:54 34.64842 -86.76869 601 ft 16 kts 118°
2026-04-20 23:54 34.64767 -86.76825 600 ft 10 kts 158°
2026-04-20 23:54 34.64701 -86.76831 600 ft 11 kts 182°
2026-04-20 23:55 34.64592 -86.76836 600 ft 19 kts 181°
2026-04-20 23:55 34.64491 -86.76891 600 ft 16 kts 271°
2026-04-20 23:55 34.64493 -86.77007 600 ft 11 kts 270°
2026-04-20 23:55 34.64494 -86.77107 602 ft 15 kts 270°
2026-04-20 23:56 34.64497 -86.77294 606 ft 27 kts 270°
2026-04-20 23:56 34.64501 -86.77568 611 ft 36 kts 271°
2026-04-20 23:56 34.64507 -86.77895 618 ft 39 kts 273°
2026-04-20 23:56 34.64337 -86.77979 619 ft 25 kts 180°
2026-04-20 23:57 34.64159 -86.77982 619 ft 26 kts 180°
2026-04-20 23:57 34.63964 -86.77986 620 ft 28 kts 181°
2026-04-20 23:57 34.63760 -86.77990 618 ft 30 kts 180°
2026-04-20 23:57 34.63537 -86.77995 614 ft 33 kts 181°
2026-04-20 23:58 34.63302 -86.78000 613 ft 33 kts 181°
2026-04-20 23:58 34.63056 -86.78005 608 ft 35 kts 180°
2026-04-20 23:58 34.62808 -86.78008 607 ft 35 kts 179°
2026-04-20 23:58 34.62573 -86.78014 605 ft 31 kts 180°
2026-04-20 23:59 34.62371 -86.78018 598 ft 27 kts 181°
2026-04-20 23:59 34.62172 -86.78020 594 ft 30 kts 180°
2026-04-20 23:59 34.61948 -86.78023 590 ft 33 kts 181°
2026-04-20 23:59 34.61827 -86.78091 589 ft 12 kts 268°
2026-04-21 00:00 34.61827 -86.78133 590 ft 0 kts 269°
2026-04-21 00:01 34.61902 -86.78274 592 ft 38 kts 358°
2026-04-21 00:01 34.62336 -86.78272 624 ft 77 kts 358°
2026-04-21 00:01 34.62893 -86.78297 832 ft 78 kts 352°
2026-04-21 00:01 34.63434 -86.78301 1046 ft 78 kts
2026-04-21 00:02 34.63963 -86.78280 1267 ft 76 kts 357°
2026-04-21 00:02 34.64495 -86.78319 1451 ft 79 kts 352°
2026-04-21 00:02 34.65055 -86.78391 1600 ft 79 kts 355°
2026-04-21 00:02 34.65605 -86.78409 1638 ft 78 kts 357°
2026-04-21 00:03 34.66067 -86.78705 1641 ft 81 kts 303°
2026-04-21 00:03 34.66153 -86.79379 1637 ft 83 kts 264°
2026-04-21 00:03 34.66099 -86.80079 1646 ft 83 kts 260°
2026-04-21 00:03 34.65730 -86.80578 1627 ft 85 kts 192°
2026-04-21 00:04 34.65158 -86.80534 1653 ft 82 kts 174°
2026-04-21 00:04 34.64609 -86.80438 1688 ft 78 kts 171°
2026-04-21 00:04 34.64049 -86.80321 1670 ft 83 kts 167°
2026-04-21 00:04 34.63480 -86.80164 1676 ft 82 kts 169°
2026-04-21 00:05 34.62915 -86.80077 1685 ft 82 kts 177°
2026-04-21 00:05 34.62336 -86.80063 1690 ft 83 kts 177°
2026-04-21 00:05 34.61745 -86.80032 1686 ft 84 kts 178°
2026-04-21 00:05 34.61157 -86.80025 1677 ft 85 kts 180°
2026-04-21 00:06 34.60595 -86.80044 1579 ft 76 kts 181°
2026-04-21 00:06 34.60072 -86.80026 1414 ft 75 kts 180°
2026-04-21 00:06 34.59555 -86.79971 1237 ft 74 kts 159°
2026-04-21 00:06 34.59301 -86.79465 1049 ft 74 kts 90°
2026-04-21 00:07 34.59372 -86.78894 925 ft 69 kts 53°
2026-04-21 00:07 34.59804 -86.78657 819 ft 69 kts 17°
2026-04-21 00:07 34.60264 -86.78493 789 ft 67 kts 11°
2026-04-21 00:07 34.60726 -86.78385 744 ft 67 kts
2026-04-21 00:08 34.61189 -86.78319 705 ft 66 kts
2026-04-21 00:08 34.61645 -86.78291 658 ft 65 kts
2026-04-21 00:08 34.62055 -86.78276 594 ft 51 kts
2026-04-21 00:08 34.62512 -86.78275 638 ft 74 kts 354°
2026-04-21 00:09 34.63035 -86.78289 794 ft 76 kts 356°
2026-04-21 00:09 34.63569 -86.78306 968 ft 76 kts 356°
2026-04-21 00:09 34.64108 -86.78329 1141 ft 76 kts 354°
2026-04-21 00:09 34.64639 -86.78333 1309 ft 76 kts
2026-04-21 00:10 34.65096 -86.78591 1448 ft 79 kts 293°
2026-04-21 00:10 34.65116 -86.79287 1563 ft 84 kts 263°
2026-04-21 00:10 34.65055 -86.79972 1624 ft 80 kts 251°
2026-04-21 00:10 34.64680 -86.80441 1613 ft 76 kts 201°
2026-04-21 00:11 34.64148 -86.80484 1564 ft 79 kts 176°
2026-04-21 00:11 34.63590 -86.80428 1529 ft 80 kts 173°
2026-04-21 00:11 34.63045 -86.80375 1519 ft 77 kts 178°
2026-04-21 00:11 34.62512 -86.80367 1508 ft 75 kts 181°
2026-04-21 00:12 34.62001 -86.80373 1410 ft 72 kts 180°
2026-04-21 00:12 34.61504 -86.80357 1289 ft 71 kts 180°
2026-04-21 00:12 34.61018 -86.80195 1152 ft 73 kts 141°
2026-04-21 00:12 34.60786 -86.79660 1048 ft 72 kts 95°
2026-04-21 00:13 34.60802 -86.79049 950 ft 71 kts 88°
2026-04-21 00:13 34.60990 -86.78539 851 ft 69 kts 22°
2026-04-21 00:13 34.61449 -86.78352 744 ft 71 kts 14°
2026-04-21 00:13 34.61937 -86.78283 622 ft 65 kts
2026-04-21 00:14 34.62336 -86.78273 597 ft 55 kts 359°
2026-04-21 00:14 34.62817 -86.78281 668 ft 75 kts 356°
2026-04-21 00:14 34.63358 -86.78305 833 ft 76 kts 355°
2026-04-21 00:14 34.63879 -86.78348 1015 ft 75 kts 353°
2026-04-21 00:15 34.64408 -86.78381 1186 ft 76 kts 359°
2026-04-21 00:15 34.64936 -86.78403 1361 ft 75 kts 341°
2026-04-21 00:15 34.65273 -86.78874 1483 ft 80 kts 275°
2026-04-21 00:15 34.65253 -86.79559 1611 ft 82 kts 261°
2026-04-21 00:16 34.65165 -86.80239 1629 ft 78 kts 245°
2026-04-21 00:16 34.64759 -86.80636 1617 ft 77 kts 188°
2026-04-21 00:16 34.64218 -86.80636 1599 ft 77 kts 174°
2026-04-21 00:16 34.63667 -86.80586 1598 ft 82 kts 175°
2026-04-21 00:17 34.63083 -86.80549 1623 ft 84 kts 174°
2026-04-21 00:17 34.62497 -86.80467 1666 ft 85 kts 171°
2026-04-21 00:17 34.61904 -86.80372 1704 ft 84 kts 170°
2026-04-21 00:17 34.61338 -86.80292 1710 ft 81 kts 172°
2026-04-21 00:18 34.60795 -86.80184 1564 ft 78 kts 166°
2026-04-21 00:18 34.60409 -86.79787 1423 ft 71 kts 116°
2026-04-21 00:18 34.60320 -86.79214 1272 ft 70 kts 91°
2026-04-21 00:18 34.60354 -86.78597 1103 ft 74 kts 76°
2026-04-21 00:19 34.60739 -86.78230 968 ft 74 kts
2026-04-21 00:19 34.61234 -86.78273 833 ft 71 kts 358°
2026-04-21 00:19 34.61717 -86.78284 680 ft 67 kts
2026-04-21 00:19 34.62146 -86.78273 594 ft 51 kts
2026-04-21 00:20 34.62445 -86.78260 599 ft 35 kts
2026-04-21 00:20 34.62541 -86.78151 603 ft 11 kts 90°
2026-04-21 00:20 34.62541 -86.78127 603 ft 0 kts 89°
2026-04-21 00:21 34.62559 -86.78029 604 ft 23 kts 39°
2026-04-21 00:22 34.62699 -86.78014 607 ft 17 kts 359°
2026-04-21 00:22 34.62843 -86.78016 607 ft 25 kts 10°
2026-04-21 00:22 34.63038 -86.78005 608 ft 30 kts 357°
2026-04-21 00:22 34.63263 -86.78003 612 ft 34 kts
2026-04-21 00:23 34.63517 -86.77996 614 ft 38 kts
2026-04-21 00:23 34.63785 -86.77990 619 ft 39 kts
2026-04-21 00:23 34.64060 -86.77983 620 ft 36 kts
2026-04-21 00:23 34.64175 -86.77816 616 ft 29 kts 90°
2026-04-21 00:24 34.64171 -86.77522 611 ft 38 kts 91°
2026-04-21 00:24 34.64166 -86.77168 600 ft 44 kts 91°
2026-04-21 00:24 34.64160 -86.76829 600 ft 31 kts 90°
2026-04-21 00:24 34.64252 -86.76719 600 ft 20 kts
2026-04-21 00:25 34.64422 -86.76718 600 ft 27 kts
2026-04-21 00:25 34.64640 -86.76711 600 ft 36 kts
2026-04-21 00:25 34.64831 -86.76746 600 ft 23 kts 281°
2026-04-21 00:25 34.64890 -86.76884 600 ft 19 kts 358°
2026-04-21 00:26 34.64905 -86.76884 600 ft 0 kts 359°